When you browse on this site, cookies collect data to enhance your experience and personalize the content and advertising you see.
Visit our Privacy Policy to learn more. By continuing to use the site, you agree to this use of cookies and data.
  • In Hungary
  • List of Countries
  • For 7 days
  • Water Temperature
  • Satellite Maps
  • Weather Map
  • News
  • Weather Widgets
  • user-avatar
    Login

    Hourly Weather Huizhou

    Today, 13 December, Thursday

    Time Temperature Precipitation Wind Pressure Humidity
    00:00 +9°C° 0 mm 3 mps 767 mmHg 68%
    01:00 +9°C° 0 mm 3 mps 767 mmHg 68%
    02:00 +9°C° 0 mm 2 mps 767 mmHg 69%
    03:00 +9°C° 0 mm 2 mps 767 mmHg 69%
    04:00 +9°C° 0 mm 2 mps 767 mmHg 69%
    05:00 +9°C° 0 mm 3 mps 767 mmHg 70%
    06:00 +9°C° 0 mm 3 mps 767 mmHg 70%
    07:00 +9°C° 0 mm 3 mps 767 mmHg 71%
    08:00 +9°C° 0 mm 3 mps 768 mmHg 70%
    09:00 +9°C° 0 mm 3 mps 768 mmHg 71%
    10:00 +9°C° 0 mm 3 mps 768 mmHg 71%
    11:00 +10°C° 0 mm 3 mps 769 mmHg 72%
    12:00 +10°C° 0 mm 3 mps 768 mmHg 72%
    13:00 +10°C° 0 mm 3 mps 768 mmHg 72%
    14:00 +10°C° 0 mm 3 mps 767 mmHg 72%
    15:00 +11°C° 0 mm 3 mps 767 mmHg 72%
    16:00 +11°C° 0 mm 3 mps 766 mmHg 72%
    17:00 +11°C° 0 mm 3 mps 766 mmHg 71%
    18:00 +12°C° 0 mm 2 mps 766 mmHg 73%
    19:00 +10°C° 0 mm 2 mps 766 mmHg 74%
    20:00 +10°C° 0 mm 2 mps 766 mmHg 76%
    21:00 +10°C° 0 mm 2 mps 767 mmHg 76%
    22:00 +10°C° 0 mm 2 mps 767 mmHg 77%
    23:00 +10°C° 0 mm 2 mps 767 mmHg 77%

    Tomorrow, 14 December, Friday

    Time Temperature Precipitation Wind Pressure Humidity
    00:00 +10°C° 0 mm 2 mps 767 mmHg 78%
    01:00 +10°C° 0 mm 2 mps 767 mmHg 78%
    02:00 +10°C° 0 mm 2 mps 767 mmHg 78%
    03:00 +9°C° 0 mm 2 mps 767 mmHg 79%
    04:00 +9°C° 0 mm 2 mps 767 mmHg 79%
    05:00 +9°C° 0 mm 2 mps 767 mmHg 79%
    06:00 +9°C° 0 mm 2 mps 767 mmHg 78%
    07:00 +10°C° 0 mm 2 mps 767 mmHg 77%
    08:00 +10°C° 0 mm 2 mps 767 mmHg 76%
    09:00 +12°C° 0 mm 3 mps 767 mmHg 70%
    10:00 +14°C° 0 mm 3 mps 768 mmHg 63%
    11:00 +17°C° 0 mm 3 mps 768 mmHg 57%
    12:00 +18°C° 0 mm 3 mps 767 mmHg 56%
    13:00 +20°C° 0 mm 3 mps 766 mmHg 54%
    14:00 +21°C° 0 mm 3 mps 766 mmHg 52%
    15:00 +21°C° 0 mm 3 mps 765 mmHg 55%
    16:00 +20°C° 0 mm 2 mps 765 mmHg 58%
    17:00 +20°C° 0 mm 2 mps 765 mmHg 61%
    18:00 +19°C° 0 mm 2 mps 765 mmHg 65%
    19:00 +18°C° 0 mm 2 mps 765 mmHg 68%
    20:00 +17°C° 0 mm 2 mps 766 mmHg 72%
    21:00 +16°C° 0 mm 2 mps 766 mmHg 73%
    22:00 +16°C° 0 mm 2 mps 766 mmHg 73%
    23:00 +15°C° 0 mm 2 mps 766 mmHg 74%

    Day after tomorrow, 15 December, Saturday

    Time Temperature Precipitation Wind Pressure Humidity
    00:00 +15°C° 0 mm 2 mps 766 mmHg 75%
    01:00 +15°C° 0 mm 2 mps 766 mmHg 75%
    02:00 +15°C° 0 mm 2 mps 766 mmHg 75%
    03:00 +15°C° 0 mm 2 mps 766 mmHg 75%
    04:00 +14°C° 0 mm 2 mps 765 mmHg 74%
    05:00 +14°C° 0 mm 2 mps 765 mmHg 73%
    06:00 +15°C° 0 mm 2 mps 765 mmHg 72%
    07:00 +15°C° 0 mm 2 mps 766 mmHg 71%
    08:00 +15°C° 0 mm 2 mps 766 mmHg 71%
    09:00 +16°C° 0 mm 2 mps 766 mmHg 67%
    10:00 +18°C° 0 mm 2 mps 766 mmHg 63%
    11:00 +19°C° 0 mm 2 mps 767 mmHg 59%
    12:00 +20°C° 0 mm 2 mps 766 mmHg 59%
    13:00 +20°C° 0 mm 2 mps 765 mmHg 58%
    14:00 +21°C° 0 mm 2 mps 764 mmHg 57%
    15:00 +21°C° 0 mm 2 mps 764 mmHg 59%
    16:00 +20°C° 0 mm 2 mps 764 mmHg 62%
    17:00 +20°C° 0 mm 2 mps 763 mmHg 64%
    18:00 +20°C° 0 mm 1 mps 764 mmHg 67%
    19:00 +19°C° 0 mm 1 mps 764 mmHg 71%
    20:00 +18°C° 0 mm 1 mps 765 mmHg 74%
    21:00 +18°C° 0 mm 1 mps 765 mmHg 75%
    22:00 +18°C° 0 mm 1 mps 765 mmHg 76%
    23:00 +16°C° 0 mm 1 mps 765 mmHg 77%

    16 December, Sunday

    Time Temperature Precipitation Wind Pressure Humidity
    00:00 +16°C° 0 mm 1 mps 765 mmHg 79%
    01:00 +16°C° 0 mm 1 mps 765 mmHg 80%
    02:00 +16°C° 0 mm 1 mps 765 mmHg 81%
    03:00 +15°C° 0 mm 1 mps 765 mmHg 81%
    04:00 +15°C° 0 mm 1 mps 764 mmHg 82%
    05:00 +15°C° 0 mm 1 mps 764 mmHg 83%
    06:00 +15°C° 0 mm 2 mps 765 mmHg 82%
    07:00 +15°C° 0 mm 2 mps 765 mmHg 80%
    08:00 +15°C° 0 mm 2 mps 766 mmHg 79%
    09:00 +17°C° 0 mm 2 mps 766 mmHg 71%
    10:00 +19°C° 0 mm 2 mps 766 mmHg 63%
    11:00 +21°C° 0 mm 3 mps 766 mmHg 55%
    12:00 +22°C° 0 mm 3 mps 765 mmHg 52%
    13:00 +24°C° 0 mm 3 mps 764 mmHg 50%
    14:00 +25°C° 0 mm 3 mps 763 mmHg 47%
    15:00 +24°C° 0 mm 3 mps 763 mmHg 50%
    16:00 +24°C° 0 mm 3 mps 763 mmHg 53%
    17:00 +22°C° 0 mm 3 mps 763 mmHg 56%
    18:00 +21°C° 0 mm 3 mps 763 mmHg 60%
    19:00 +20°C° 0 mm 3 mps 764 mmHg 64%
    20:00 +18°C° 0 mm 3 mps 764 mmHg 67%
    21:00 +18°C° 0 mm 3 mps 764 mmHg 68%
    22:00 +17°C° 0 mm 3 mps 765 mmHg 70%
    23:00 +17°C° 0 mm 3 mps 765 mmHg 71%

    17 December, Monday

    Time Temperature Precipitation Wind Pressure Humidity
    00:00 +16°C° 0 mm 3 mps 765 mmHg 72%
    01:00 +16°C° 0 mm 2 mps 764 mmHg 73%
    02:00 +15°C° 0 mm 2 mps 764 mmHg 74%
    03:00 +15°C° 0 mm 2 mps 764 mmHg 74%
    04:00 +14°C° 0 mm 2 mps 764 mmHg 75%
    05:00 +14°C° 0 mm 2 mps 764 mmHg 75%
    06:00 +14°C° 0 mm 2 mps 764 mmHg 73%
    07:00 +14°C° 0 mm 2 mps 765 mmHg 71%
    08:00 +14°C° 0 mm 2 mps 766 mmHg 69%
    09:00 +16°C° 0 mm 3 mps 766 mmHg 60%
    10:00 +18°C° 0 mm 3 mps 766 mmHg 50%
    11:00 +20°C° 0 mm 3 mps 766 mmHg 40%
    12:00 +21°C° 0 mm 3 mps 765 mmHg 37%
    13:00 +22°C° 0 mm 3 mps 764 mmHg 35%
    14:00 +24°C° 0 mm 3 mps 763 mmHg 32%
    15:00 +22°C° 0 mm 3 mps 763 mmHg 35%
    16:00 +23°C° 0 mm 2 mps 763 mmHg 38%
    17:00 +21°C° 0 mm 2 mps 762 mmHg 41%
    18:00 +20°C° 0 mm 2 mps 763 mmHg 43%
    19:00 +18°C° 0 mm 2 mps 763 mmHg 46%
    20:00 +17°C° 0 mm 2 mps 764 mmHg 48%
    21:00 +17°C° 0 mm 2 mps 764 mmHg 50%
    22:00 +16°C° 0 mm 2 mps 764 mmHg 51%
    23:00 +16°C° 0 mm 2 mps 764 mmHg 53%

    18 December, Tuesday

    Time Temperature Precipitation Wind Pressure Humidity
    00:00 +15°C° 0 mm 1 mps 764 mmHg 53%
    01:00 +15°C° 0 mm 1 mps 764 mmHg 54%
    02:00 +14°C° 0 mm 1 mps 763 mmHg 55%
    03:00 +14°C° 0 mm 1 mps 763 mmHg 55%
    04:00 +14°C° 0 mm 1 mps 763 mmHg 56%
    05:00 +14°C° 0 mm 1 mps 763 mmHg 56%
    06:00 +14°C° 0 mm 1 mps 763 mmHg 56%
    07:00 +14°C° 0 mm 1 mps 763 mmHg 56%
    08:00 +14°C° 0 mm 1 mps 764 mmHg 56%
    09:00 +16°C° 0 mm 1 mps 764 mmHg 51%
    10:00 +20°C° 0 mm 1 mps 764 mmHg 46%
    11:00 +22°C° 0 mm 1 mps 763 mmHg 41%
    12:00 +23°C° 0 mm 1 mps 763 mmHg 39%
    13:00 +24°C° 0 mm 1 mps 762 mmHg 37%
    14:00 +25°C° 0 mm 1 mps 761 mmHg 35%
    15:00 +24°C° 0 mm 2 mps 761 mmHg 38%
    16:00 +24°C° 0 mm 2 mps 761 mmHg 42%
    17:00 +23°C° 0 mm 2 mps 761 mmHg 46%
    18:00 +21°C° 0 mm 2 mps 761 mmHg 51%
    19:00 +20°C° 0 mm 2 mps 762 mmHg 56%
    20:00 +18°C° 0 mm 2 mps 762 mmHg 62%
    21:00 +18°C° 0 mm 2 mps 762 mmHg 65%
    22:00 +18°C° 0 mm 2 mps 762 mmHg 67%
    23:00 +18°C° 0 mm 1 mps 762 mmHg 70%
    Show more